Temp
64 64 64 64 65 66 64 63 63 64 65 66 65 66 66 65 64 64 64 63 64 64 63 61 61 61 63 62 61 60 60 59 59 57 55 55 54 56 58 59 60 58 60 54 54 52 47 48 50 56 54 54 54 56 55 56 57 58 56 53 56 59 55
65 65 65 65 66 66 64 63 63 63 64 65 66 65 64 65 65 64 63 63 62 63 64 62 61 61 60 59 59 59 58 57 58 56 55 53 54 56 55 57 55 57 56 55 56 53 49 46 49 48 52 54 52 55 56 55 55 56 56 56 56 60 58
65 64 65 65 66 66 63 62 62 62 62 63 63 63 64 65 63 63 62 61 61 61 62 60 59 59 58 58 58 57 57 57 56 57 56 54 56 54 54 54 53 52 53 53 52 51 52 49 48 51 50 51 50 50 52 54 55 55 56 56 56 58 56
65 65 64 65 65 65 63 62 61 61 62 62 62 62 63 63 63 64 61 61 62 62 61 59 58 58 57 57 58 58 57 57 56 56 56 55 55 55 54 54 52 53 53 51 50 51 51 49 48 51 51 52 51 51 53 54 55 57 58 57 56 58 56
65 65 64 64 65 65 63 62 61 61 61 62 61 60 61 62 62 61 62 60 60 59 59 59 58 58 58 58 56 57 56 56 57 56 55 54 54 53 53 52 52 53 53 52 53 52 52 50 51 49 50 52 54 52 56 53 56 56 57 58 58 57 56
66 66 65 65 66 65 64 62 61 60 60 61 60 61 60 61 61 59 59 58 58 59 58 57 56 56 56 56 56 56 56 56 54 55 54 52 53 53 51 52 53 54 53 52 53 52 51 51 50 47 50 52 47 51 54 54 55 56 57 58 57 57 58
66 66 65 65 65 65 64 62 62 61 61 60 60 59 60 62 60 60 59 58 58 58 58 57 57 57 57 57 56 56 55 55 55 54 54 54 53 53 53 53 53 53 51 53 52 52 52 51 48 47 48 46 50 51 53 54 55 52 55 57 58 58 57
66 66 65 65 65 64 64 63 62 62 61 61 60 61 61 60 59 59 59 58 57 57 57 57 57 56 56 56 56 55 55 54 54 54 53 54 54 53 53 52 53 52 51 52 51 52 53 52 51 49 47 47 45 44 50 50 52 54 55 56 57 60 57
67 66 65 65 64 65 64 64 63 62 62 61 61 61 60 60 59 59 58 57 57 57 57 56 56 56 55 55 54 55 55 57 54 54 52 53 53 53 52 52 53 52 53 53 53 51 51 52 52 50 49 47 43 45 44 46 46 50 55 55 54 58 59
67 65 65 64 65 65 64 63 63 63 62 62 61 61 60 60 59 58 58 57 57 56 56 56 56 56 55 55 54 53 53 54 54 53 52 53 52 52 51 51 51 51 51 51 53 53 52 52 52 50 50 48 48 43 43 42 46 46 52 54 52 54 58
67 66 66 65 65 64 63 63 62 62 61 62 62 61 60 59 59 60 57 57 55 56 56 56 56 55 54 53 54 54 53 53 53 53 53 53 52 53 53 52 52 50 50 52 52 52 52 50 50 51 49 49 48 46 44 42 46 48 48 50 54 54 56
68 68 67 66 65 64 62 63 62 62 62 61 61 60 59 59 58 57 57 56 56 56 55 55 55 54 54 54 54 53 53 53 53 52 53 54 53 53 52 51 51 51 52 52 52 51 51 52 50 49 49 50 50 48 46 44 41 44 49 49 51 55 55
69 68 67 66 65 63 63 63 62 61 61 61 60 60 59 58 58 56 56 56 55 55 56 55 55 54 54 54 53 53 53 53 53 52 53 54 54 52 50 49 49 51 50 50 50 51 51 52 52 50 50 50 48 48 47 45 43 44 47 50 50 54 56
67 68 67 65 64 63 63 63 62 62 61 60 60 59 59 58 58 57 57 56 56 55 55 54 55 54 54 53 53 53 53 53 53 52 52 52 53 53 51 50 50 50 49 49 48 50 49 50 50 52 51 48 49 47 49 46 44 45 45 47 50 52 54
67 67 66 64 64 63 63 62 61 61 60 60 61 60 59 58 57 57 56 55 55 55 55 55 54 54 53 53 53 54 53 53 52 51 51 51 51 52 50 51 51 50 50 50 49 50 50 50 51 50 49 50 48 50 48 49 47 47 46 47 48 52 51
67 66 65 63 63 63 62 61 62 61 60 60 60 60 59 58 57 57 56 56 55 55 55 54 53 53 53 53 53 52 53 52 51 50 51 51 52 51 51 49 49 50 53 50 48 48 48 49 51 51 50 50 50 50 51 50 48 47 46 46 47 49 48
66 66 65 63 63 62 62 61 62 61 61 59 59 59 59 59 57 56 56 56 55 55 54 54 54 54 54 53 52 53 53 52 51 51 52 52 51 51 50 49 48 49 48 48 47 49 49 49 49 49 49 49 50 51 52 50 50 49 47 46 46 49 50
65 65 64 63 62 62 62 62 61 61 60 59 59 59 59 58 57 56 56 56 55 55 54 54 54 54 53 52 53 53 53 52 51 52 52 51 54 51 51 50 50 49 48 48 46 48 48 48 49 49 48 48 48 50 51 50 49 49 46 45 45 46 49
64 64 63 62 62 62 62 62 61 60 61 59 58 59 59 58 58 57 57 56 56 55 55 55 55 54 53 53 53 53 53 51 52 52 51 52 51 51 50 50 49 49 49 48 46 46 45 46 47 47 46 47 48 48 49 49 50 49 47 46 46 46 47
64 64 64 63 63 62 62 62 61 61 61 60 58 58 58 57 57 58 57 56 56 56 55 55 54 53 53 54 53 53 51 51 52 52 52 52 51 50 50 49 48 49 48 46 45 44 44 45 48 45 46 46 47 47 47 48 49 48 47 46 47 45 45
64 64 65 64 63 63 62 61 61 61 61 59 58 58 57 57 56 57 56 56 56 56 55 54 54 54 54 53 52 52 52 52 52 51 51 51 51 50 49 48 48 49 49 45 44 42 43 44 45 44 44 45 45 45 45 45 45 44 43 44 42 42 43
65 65 64 64 63 63 62 63 61 61 60 59 59 58 58 58 57 56 56 56 56 56 55 54 55 54 53 52 52 52 52 53 51 51 51 51 50 49 48 48 48 48 51 53 52 50 50 50 45 44 43 43 43 43 43 43 44 41 41 41 42 43 42
65 65 64 64 64 63 63 63 62 61 60 59 58 58 58 57 57 56 56 56 56 55 54 55 57 55 54 53 52 54 52 51 52 51 51 50 49 49 49 49 51 57 56 54 52 49 47 49 51 47 43 42 42 43 41 41 41 41 42 40 39 40 41
65 64 64 64 64 64 64 62 62 61 59 59 58 57 57 57 56 56 56 55 54 54 55 57 51 48 49 52 54 51 51 51 51 51 51 50 48 48 48 49 47 53 53 53 47 46 45 46 46 47 49 50 50 43 41 40 41 39 41 41 41 40 40
64 64 64 64 64 64 63 62 61 60 58 58 57 57 56 57 55 55 55 55 54 54 53 52 46 47 47 48 52 52 51 51 51 51 50 50 50 49 47 46 45 48 46 45 44 43 46 47 44 44 43 44 44 46 46 43 42 41 40 41 40 40 39
63 63 64 64 64 63 62 62 60 59 58 58 56 56 56 56 54 55 55 54 52 51 50 46 46 47 47 46 48 51 52 51 51 50 50 51 50 48 46 46 46 47 49 55 51 43 43 44 46 44 44 45 44 42 40 41 43 43 40 41 40 39 40
63 63 64 64 64 63 61 61 60 59 58 57 56 56 55 55 54 54 54 53 50 50 48 46 45 45 45 46 47 50 52 51 51 51 50 50 49 47 47 46 46 47 46 49 47 45 44 43 43 44 42 42 43 47 45 42 40 41 43 43 41 41 43
63 63 64 64 63 62 62 60 60 57 57 57 55 55 55 54 54 54 53 51 50 48 49 45 44 44 44 45 47 50 52 52 51 50 50 50 50 48 48 48 48 47 46 45 46 46 45 43 43 45 43 44 45 46 45 45 44 43 43 43 42 43 45
63 63 63 63 62 62 61 60 59 57 56 54 54 54 53 54 54 53 52 51 49 47 46 43 44 44 45 45 47 51 50 51 50 50 49 49 50 50 50 49 48 47 45 44 48 46 46 44 43 44 45 45 45 47 47 50 46 46 47 45 44 45 46
63 63 63 62 62 61 60 59 59 57 56 54 54 54 53 53 54 53 51 50 49 48 47 45 46 44 45 46 47 50 50 50 49 49 49 49 49 50 50 49 48 47 46 45 44 41 43 46 43 45 45 44 46 45 45 47 45 44 44 44 44 43 43
63 62 63 62 61 61 60 60 59 58 57 54 53 53 53 54 55 54 51 50 51 49 48 47 45 44 45 45 49 50 47 49 48 49 50 50 50 50 50 58 53 47 46 45 41 41 42 45 42 42 44 44 45 44 42 45 48 48 46 44 44 44 44
63 61 60 61 61 61 59 59 58 57 56 55 54 54 54 54 52 51 51 50 51 49 47 48 44 44 45 45 49 49 48 49 48 48 49 49 48 49 48 55 54 49 48 45 40 41 41 44 42 41 41 44 44 43 42 42 43 42 42 44 46 47 47
61 62 62 61 58 60 59 58 57 55 56 56 55 53 52 51 49 48 50 50 50 49 48 48 46 43 45 44 46 51 48 47 48 46 47 49 49 45 47 46 47 43 43 40 39 40 41 43 42 41 41 41 42 42 41 40 43 43 41 42 42 43 45
60 61 61 58 55 57 58 58 56 53 55 55 54 52 51 51 50 49 49 49 49 49 49 48 46 43 44 44 45 48 47 46 46 47 47 48 48 46 46 45 44 43 41 40 39 39 40 41 43 42 41 41 42 42 41 39 41 47 41 41 42 43 45
59 59 58 55 55 57 58 58 57 56 56 54 53 52 52 51 50 48 48 49 49 48 50 50 48 43 43 43 44 46 48 45 45 47 48 47 47 46 46 46 45 43 42 42 41 40 40 40 41 42 41 41 41 41 39 41 40 41 42 43 41 42 43
59 59 58 57 57 56 56 56 55 56 54 54 53 51 49 49 49 48 48 47 47 48 48 49 47 46 42 43 43 44 45 43 41 45 44 44 46 48 47 48 48 45 41 41 41 40 40 39 40 40 40 39 40 39 39 39 39 40 39 40 42 41 42
60 59 58 58 57 56 55 55 55 55 54 53 51 49 47 48 48 49 48 46 47 47 47 46 46 45 45 42 42 43 43 42 42 43 43 42 40 39 42 44 47 43 41 41 41 41 40 40 40 39 38 39 39 39 39 38 38 39 40 39 39 41 43
MSLP
1017.06 1017.42 1017.62 1017.86 1017.94 1018.14 1018.38 1018.50 1018.50 1018.50 1018.50 1018.58 1018.70 1018.82 1018.94 1019.06 1019.18 1019.30 1019.38 1019.54 1019.66 1019.78 1019.94 1020.18 1020.34 1020.38 1020.46 1020.58 1020.66 1020.70 1020.70 1020.74 1020.78 1021.22 1021.62 1021.66 1021.82 1021.98 1021.70 1021.70 1021.78 1021.86 1021.94 1022.02 1022.22 1022.62 1023.10 1023.78 1023.86 1023.54 1023.42 1023.34 1023.22 1023.18 1023.22 1023.18 1023.18 1023.18 1023.18 1023.10 1023.06 1023.06 1023.02
1016.82 1017.18 1017.46 1017.70 1017.94 1018.10 1018.46 1018.58 1018.58 1018.62 1018.58 1018.62 1018.70 1018.86 1018.98 1019.10 1019.18 1019.34 1019.42 1019.54 1019.74 1019.98 1020.10 1020.34 1020.46 1020.50 1020.62 1020.70 1020.74 1020.78 1020.90 1020.98 1020.94 1021.14 1021.46 1021.70 1021.62 1021.74 1021.74 1021.74 1021.70 1021.90 1021.98 1022.06 1022.22 1022.30 1022.82 1023.46 1023.78 1023.70 1023.62 1023.50 1023.42 1023.22 1023.14 1023.18 1023.10 1023.06 1023.10 1023.06 1022.98 1022.98 1022.98
1016.62 1016.98 1017.22 1017.58 1017.86 1018.10 1018.50 1018.58 1018.58 1018.62 1018.66 1018.74 1018.82 1018.90 1019.06 1019.10 1019.30 1019.46 1019.62 1019.74 1019.94 1020.06 1020.18 1020.42 1020.54 1020.66 1020.74 1020.78 1020.86 1020.94 1020.98 1021.14 1021.26 1021.34 1021.66 1021.90 1021.94 1021.98 1021.90 1021.78 1021.82 1022.02 1022.06 1022.26 1022.50 1022.34 1022.34 1022.62 1022.94 1023.42 1023.38 1023.50 1023.62 1023.38 1023.22 1023.14 1023.02 1022.94 1023.02 1023.02 1023.06 1023.02 1023.10
1016.34 1016.74 1017.30 1017.62 1017.82 1018.18 1018.50 1018.58 1018.62 1018.66 1018.70 1018.82 1018.94 1019.06 1019.14 1019.22 1019.42 1019.54 1019.78 1019.94 1020.02 1020.14 1020.34 1020.54 1020.70 1020.74 1020.82 1020.86 1020.94 1020.94 1021.02 1021.14 1021.34 1021.46 1021.66 1021.82 1021.90 1021.98 1022.06 1022.10 1022.34 1022.30 1022.46 1022.74 1022.94 1022.78 1022.74 1022.78 1022.90 1023.14 1023.26 1023.42 1023.26 1023.42 1023.22 1023.06 1022.98 1022.94 1023.02 1022.94 1023.10 1023.06 1023.14
1016.02 1016.54 1017.02 1017.42 1017.58 1017.98 1018.26 1018.50 1018.62 1018.70 1018.82 1018.90 1019.02 1019.22 1019.38 1019.38 1019.50 1019.70 1019.86 1020.02 1020.22 1020.34 1020.54 1020.66 1020.78 1020.82 1020.86 1020.86 1020.94 1021.02 1021.18 1021.30 1021.38 1021.50 1021.66 1021.82 1021.98 1022.18 1022.30 1022.38 1022.46 1022.58 1022.62 1022.74 1022.86 1022.94 1022.82 1023.02 1023.02 1023.10 1023.18 1023.46 1023.58 1023.38 1023.14 1023.10 1023.10 1022.98 1022.98 1022.98 1023.06 1023.14 1023.22
1015.90 1016.30 1016.74 1017.10 1017.34 1017.66 1017.98 1018.34 1018.58 1018.82 1018.94 1019.10 1019.22 1019.42 1019.46 1019.50 1019.66 1019.90 1020.02 1020.18 1020.34 1020.42 1020.62 1020.74 1020.86 1020.86 1020.86 1020.94 1021.06 1021.18 1021.26 1021.38 1021.50 1021.58 1021.74 1021.98 1022.06 1022.14 1022.42 1022.54 1022.54 1022.54 1022.74 1022.90 1022.82 1022.90 1023.14 1023.14 1023.02 1022.82 1023.18 1023.18 1023.14 1023.26 1023.26 1023.26 1023.06 1022.98 1023.10 1023.10 1023.18 1023.22 1023.30
1015.86 1016.18 1016.54 1016.90 1017.18 1017.42 1017.74 1018.10 1018.38 1018.62 1018.86 1019.02 1019.22 1019.46 1019.50 1019.54 1019.78 1019.94 1020.06 1020.26 1020.38 1020.50 1020.62 1020.74 1020.82 1020.86 1020.90 1020.98 1021.10 1021.26 1021.42 1021.58 1021.58 1021.70 1021.90 1022.06 1022.14 1022.30 1022.30 1022.42 1022.58 1022.66 1022.78 1022.86 1022.90 1022.86 1022.94 1022.86 1023.14 1023.26 1023.10 1023.18 1023.22 1023.10 1023.26 1023.30 1023.18 1023.30 1023.22 1023.18 1023.30 1023.42 1023.38
1015.66 1016.06 1016.42 1016.66 1016.98 1017.30 1017.62 1017.94 1018.22 1018.46 1018.74 1018.94 1019.14 1019.34 1019.38 1019.58 1019.86 1020.02 1020.14 1020.30 1020.42 1020.54 1020.62 1020.70 1020.78 1020.86 1020.98 1021.06 1021.26 1021.42 1021.54 1021.66 1021.74 1021.82 1021.98 1022.02 1022.18 1022.30 1022.38 1022.58 1022.70 1022.82 1022.90 1022.94 1022.94 1023.10 1023.06 1023.18 1023.30 1023.42 1023.10 1022.82 1023.06 1023.26 1023.34 1023.46 1023.54 1023.66 1023.66 1023.30 1023.34 1023.42 1023.50
1015.50 1015.90 1016.34 1016.62 1016.86 1017.02 1017.38 1017.70 1018.06 1018.26 1018.50 1018.74 1019.02 1019.18 1019.42 1019.58 1019.86 1020.02 1020.22 1020.34 1020.46 1020.54 1020.62 1020.70 1020.78 1020.94 1021.06 1021.18 1021.38 1021.46 1021.66 1021.78 1021.82 1021.94 1022.14 1022.18 1022.30 1022.34 1022.50 1022.66 1022.74 1022.98 1023.02 1023.02 1023.02 1023.06 1023.18 1023.34 1023.54 1023.70 1023.74 1023.46 1023.42 1023.58 1023.90 1023.90 1024.02 1024.06 1023.74 1023.62 1023.46 1023.50 1023.54
1015.46 1015.86 1016.18 1016.46 1016.70 1016.90 1017.18 1017.50 1017.78 1018.02 1018.30 1018.58 1018.86 1019.10 1019.38 1019.58 1019.78 1020.02 1020.22 1020.38 1020.42 1020.50 1020.58 1020.66 1020.78 1020.94 1021.10 1021.26 1021.42 1021.58 1021.74 1021.86 1021.90 1022.06 1022.14 1022.22 1022.42 1022.50 1022.66 1022.78 1022.94 1023.02 1023.10 1023.10 1023.06 1023.14 1023.30 1023.46 1023.62 1023.82 1023.78 1023.66 1023.86 1023.78 1024.02 1024.10 1024.30 1024.14 1023.94 1023.78 1023.98 1023.74 1023.62
1015.22 1015.62 1015.98 1016.30 1016.50 1016.82 1017.10 1017.38 1017.66 1017.94 1018.18 1018.42 1018.70 1018.98 1019.22 1019.50 1019.74 1019.94 1020.18 1020.30 1020.38 1020.46 1020.54 1020.66 1020.78 1020.98 1021.14 1021.34 1021.46 1021.62 1021.74 1021.86 1021.98 1022.14 1022.22 1022.30 1022.50 1022.62 1022.74 1022.86 1022.98 1023.06 1023.14 1023.14 1023.22 1023.34 1023.46 1023.62 1023.70 1023.74 1023.82 1024.02 1024.10 1024.18 1024.58 1024.26 1024.30 1024.30 1024.30 1024.06 1024.02 1024.02 1023.74
1014.98 1015.42 1015.78 1016.06 1016.34 1016.70 1017.02 1017.26 1017.50 1017.74 1018.02 1018.26 1018.54 1018.86 1019.14 1019.42 1019.70 1019.94 1020.06 1020.22 1020.30 1020.42 1020.54 1020.66 1020.82 1021.02 1021.14 1021.30 1021.46 1021.58 1021.78 1021.90 1022.02 1022.14 1022.26 1022.34 1022.62 1022.66 1022.78 1022.90 1023.06 1023.10 1023.14 1023.18 1023.30 1023.42 1023.54 1023.62 1023.78 1023.86 1023.86 1023.98 1024.22 1024.42 1024.54 1024.62 1024.38 1024.42 1024.50 1024.50 1024.26 1024.10 1023.98
1014.78 1015.14 1015.54 1015.86 1016.26 1016.58 1016.86 1017.10 1017.34 1017.62 1017.86 1018.10 1018.38 1018.66 1018.98 1019.30 1019.58 1019.78 1019.94 1020.06 1020.22 1020.34 1020.50 1020.66 1020.82 1021.02 1021.18 1021.30 1021.46 1021.62 1021.78 1021.90 1022.02 1022.14 1022.30 1022.46 1022.62 1022.78 1022.90 1023.02 1023.10 1023.14 1023.18 1023.30 1023.38 1023.50 1023.54 1023.58 1023.70 1023.90 1024.02 1024.10 1024.26 1024.34 1024.50 1024.82 1024.94 1024.98 1024.66 1024.58 1024.46 1024.18 1023.98
1014.70 1014.94 1015.34 1015.70 1016.10 1016.46 1016.74 1016.94 1017.18 1017.42 1017.70 1018.02 1018.22 1018.54 1018.86 1019.14 1019.42 1019.62 1019.78 1019.98 1020.10 1020.26 1020.46 1020.66 1020.86 1020.98 1021.14 1021.30 1021.46 1021.58 1021.78 1021.90 1021.98 1022.22 1022.34 1022.54 1022.66 1022.74 1022.94 1023.14 1023.22 1023.30 1023.30 1023.42 1023.62 1023.70 1023.70 1023.74 1023.70 1023.78 1023.86 1023.86 1023.98 1024.18 1024.30 1024.66 1024.90 1024.98 1024.70 1024.58 1024.46 1024.30 1023.98
1014.54 1014.82 1015.22 1015.62 1015.98 1016.34 1016.62 1016.86 1017.06 1017.30 1017.58 1017.86 1018.02 1018.38 1018.70 1018.98 1019.26 1019.46 1019.70 1019.90 1020.02 1020.22 1020.42 1020.62 1020.78 1020.94 1021.10 1021.26 1021.42 1021.62 1021.82 1021.90 1022.06 1022.26 1022.42 1022.58 1022.78 1022.98 1023.10 1023.14 1023.26 1023.34 1023.38 1023.54 1023.62 1023.70 1023.78 1023.78 1023.78 1023.78 1023.78 1023.86 1023.98 1024.06 1024.22 1024.42 1024.74 1024.94 1024.90 1024.62 1024.42 1024.26 1024.02
1014.46 1014.78 1015.14 1015.58 1015.90 1016.18 1016.46 1016.70 1016.90 1017.18 1017.46 1017.74 1017.98 1018.18 1018.54 1018.82 1019.14 1019.38 1019.62 1019.82 1019.98 1020.18 1020.34 1020.54 1020.78 1020.90 1021.06 1021.18 1021.34 1021.66 1021.82 1021.90 1022.06 1022.30 1022.46 1022.70 1022.86 1023.02 1023.10 1023.22 1023.26 1023.30 1023.46 1023.58 1023.74 1023.86 1023.86 1023.86 1023.94 1024.06 1024.18 1024.18 1024.18 1024.26 1024.26 1024.38 1024.66 1024.82 1024.78 1024.62 1024.42 1024.30 1024.14
1014.38 1014.70 1015.10 1015.46 1015.78 1016.02 1016.30 1016.58 1016.82 1017.10 1017.38 1017.66 1017.90 1018.18 1018.38 1018.70 1019.02 1019.26 1019.50 1019.74 1019.94 1020.10 1020.30 1020.54 1020.74 1020.86 1020.98 1021.14 1021.38 1021.58 1021.78 1021.94 1022.10 1022.30 1022.46 1022.62 1022.82 1022.98 1023.14 1023.26 1023.30 1023.38 1023.54 1023.66 1023.82 1023.90 1024.02 1024.06 1024.10 1024.22 1024.30 1024.42 1024.38 1024.34 1024.30 1024.30 1024.50 1024.70 1024.58 1024.74 1024.46 1024.38 1024.30
1014.30 1014.62 1014.94 1015.26 1015.58 1015.86 1016.10 1016.42 1016.78 1017.02 1017.30 1017.62 1017.78 1018.06 1018.38 1018.62 1018.94 1019.18 1019.38 1019.62 1019.86 1020.02 1020.26 1020.46 1020.66 1020.82 1021.02 1021.18 1021.38 1021.54 1021.70 1021.86 1022.10 1022.26 1022.42 1022.62 1022.78 1022.98 1023.10 1023.18 1023.26 1023.38 1023.58 1023.82 1023.98 1024.10 1024.14 1024.18 1024.22 1024.26 1024.34 1024.50 1024.50 1024.46 1024.46 1024.50 1024.54 1024.66 1024.70 1024.86 1024.86 1024.46 1024.50
1014.18 1014.46 1014.78 1015.10 1015.38 1015.66 1015.94 1016.30 1016.66 1016.98 1017.14 1017.46 1017.74 1017.94 1018.26 1018.54 1018.78 1019.06 1019.26 1019.50 1019.74 1019.98 1020.22 1020.38 1020.58 1020.74 1020.94 1021.14 1021.30 1021.46 1021.62 1021.86 1022.10 1022.30 1022.46 1022.62 1022.78 1022.94 1023.06 1023.14 1023.30 1023.50 1023.70 1023.90 1024.14 1024.26 1024.34 1024.38 1024.38 1024.42 1024.54 1024.62 1024.70 1024.74 1024.74 1024.74 1024.70 1024.70 1024.82 1025.02 1024.98 1024.78 1024.74
1013.98 1014.30 1014.58 1014.94 1015.26 1015.54 1015.86 1016.18 1016.54 1016.86 1017.02 1017.26 1017.62 1017.94 1018.18 1018.46 1018.70 1018.90 1019.18 1019.42 1019.66 1019.86 1020.10 1020.34 1020.54 1020.74 1020.94 1021.06 1021.22 1021.42 1021.70 1021.94 1022.14 1022.30 1022.46 1022.62 1022.78 1022.98 1023.14 1023.42 1023.66 1023.82 1024.02 1024.18 1024.30 1024.42 1024.50 1024.62 1024.78 1024.86 1024.86 1024.82 1024.94 1024.94 1025.06 1025.10 1025.06 1025.02 1025.14 1025.18 1025.06 1025.14 1025.02
1013.78 1014.10 1014.38 1014.74 1015.06 1015.34 1015.70 1016.10 1016.42 1016.66 1016.86 1017.14 1017.50 1017.82 1018.10 1018.34 1018.62 1018.82 1019.06 1019.30 1019.54 1019.78 1020.06 1020.30 1020.50 1020.70 1020.86 1021.06 1021.26 1021.50 1021.70 1021.86 1022.06 1022.30 1022.50 1022.74 1022.94 1023.22 1023.42 1023.62 1023.82 1023.98 1024.10 1024.30 1024.42 1024.62 1024.62 1024.74 1024.82 1024.90 1025.14 1025.02 1025.06 1025.02 1025.18 1025.26 1025.22 1025.34 1025.34 1025.38 1025.62 1025.58 1025.38
1013.66 1013.94 1014.26 1014.62 1014.90 1015.22 1015.58 1015.98 1016.30 1016.58 1016.78 1017.02 1017.38 1017.74 1017.98 1018.22 1018.50 1018.74 1019.02 1019.22 1019.46 1019.74 1019.98 1020.22 1020.42 1020.58 1020.82 1021.06 1021.26 1021.46 1021.66 1021.86 1022.10 1022.38 1022.62 1022.90 1023.22 1023.42 1023.66 1023.78 1023.90 1024.10 1024.22 1024.42 1024.58 1024.66 1024.74 1024.78 1024.70 1024.86 1025.14 1025.10 1025.10 1025.10 1025.18 1025.30 1025.38 1025.34 1025.54 1025.54 1025.50 1025.78 1025.58
1013.50 1013.74 1014.14 1014.50 1014.78 1015.10 1015.46 1015.82 1016.18 1016.46 1016.70 1016.94 1017.34 1017.62 1017.90 1018.14 1018.38 1018.66 1018.94 1019.18 1019.46 1019.70 1019.98 1020.18 1020.30 1020.50 1020.74 1020.98 1021.18 1021.42 1021.66 1021.94 1022.18 1022.34 1022.58 1023.06 1023.38 1023.54 1023.66 1023.78 1023.94 1023.98 1024.22 1024.46 1024.62 1024.74 1024.78 1024.82 1024.86 1024.90 1025.02 1025.02 1025.02 1025.06 1025.14 1025.18 1025.30 1025.46 1025.46 1025.50 1025.82 1025.98 1025.70
1013.30 1013.66 1013.94 1014.34 1014.66 1014.98 1015.38 1015.74 1016.06 1016.34 1016.58 1016.90 1017.26 1017.54 1017.78 1018.06 1018.30 1018.58 1018.86 1019.14 1019.46 1019.70 1019.98 1020.14 1020.34 1020.58 1020.74 1020.94 1021.18 1021.42 1021.66 1021.98 1022.14 1022.30 1022.62 1023.02 1023.38 1023.62 1023.74 1023.82 1023.94 1024.10 1024.26 1024.50 1024.66 1024.74 1024.74 1024.74 1024.78 1024.86 1024.98 1025.06 1025.06 1024.90 1024.94 1025.06 1025.18 1025.30 1025.38 1025.50 1025.74 1025.62 1025.70
1013.22 1013.54 1013.82 1014.18 1014.50 1014.86 1015.26 1015.66 1015.94 1016.18 1016.46 1016.90 1017.22 1017.46 1017.74 1017.94 1018.26 1018.54 1018.82 1019.14 1019.46 1019.74 1020.02 1020.26 1020.54 1020.78 1020.94 1021.10 1021.34 1021.62 1021.86 1022.06 1022.22 1022.38 1022.66 1023.02 1023.34 1023.54 1023.70 1023.90 1024.10 1024.22 1024.38 1024.42 1024.54 1024.58 1024.62 1024.66 1024.70 1024.78 1024.90 1025.02 1025.06 1025.10 1025.10 1024.94 1024.86 1025.10 1025.30 1025.26 1025.34 1025.38 1025.62
1013.06 1013.38 1013.62 1013.94 1014.38 1014.78 1015.18 1015.54 1015.78 1015.98 1016.38 1016.78 1017.14 1017.42 1017.66 1017.86 1018.22 1018.46 1018.78 1019.14 1019.58 1019.94 1020.26 1020.50 1020.62 1020.86 1021.10 1021.30 1021.50 1021.74 1021.98 1022.18 1022.34 1022.50 1022.74 1023.06 1023.26 1023.50 1023.70 1023.90 1024.10 1024.26 1024.26 1024.22 1024.30 1024.42 1024.46 1024.54 1024.74 1024.94 1025.10 1025.18 1025.22 1025.18 1025.10 1025.10 1025.10 1024.94 1025.14 1025.30 1025.30 1025.26 1025.22
1012.86 1013.14 1013.42 1013.86 1014.22 1014.66 1015.06 1015.34 1015.50 1015.74 1016.26 1016.74 1017.06 1017.34 1017.58 1017.82 1018.18 1018.46 1018.78 1019.22 1019.74 1020.10 1020.34 1020.54 1020.54 1020.82 1021.14 1021.34 1021.50 1021.66 1021.90 1022.06 1022.26 1022.42 1022.66 1022.98 1023.22 1023.42 1023.54 1023.74 1023.94 1024.06 1024.14 1024.06 1024.22 1024.34 1024.46 1024.50 1024.66 1024.78 1024.86 1024.90 1024.94 1024.94 1025.02 1025.02 1025.02 1025.14 1025.30 1025.22 1025.22 1025.10 1024.70
1012.62 1012.98 1013.30 1013.70 1014.10 1014.46 1014.82 1015.18 1015.42 1015.70 1016.14 1016.54 1016.90 1017.18 1017.42 1017.78 1018.14 1018.46 1018.86 1019.30 1019.74 1020.10 1020.26 1020.54 1020.54 1020.78 1021.10 1021.46 1021.66 1021.74 1021.82 1021.94 1022.10 1022.26 1022.46 1022.78 1022.98 1023.22 1023.42 1023.58 1023.66 1023.74 1023.86 1023.94 1024.06 1024.18 1024.34 1024.50 1024.58 1024.62 1024.70 1024.70 1024.70 1024.66 1024.70 1024.74 1024.82 1024.90 1025.10 1025.26 1025.22 1024.98 1024.58
1012.42 1012.74 1013.14 1013.54 1013.98 1014.30 1014.62 1014.90 1015.18 1015.62 1016.06 1016.54 1016.90 1017.18 1017.46 1017.74 1018.06 1018.42 1018.86 1019.26 1019.70 1020.22 1020.58 1020.66 1020.54 1020.74 1020.90 1021.26 1021.78 1021.98 1021.98 1021.98 1022.02 1022.18 1022.34 1022.58 1022.74 1022.94 1023.14 1023.26 1023.42 1023.54 1023.74 1023.82 1023.90 1024.02 1024.14 1024.26 1024.34 1024.42 1024.46 1024.46 1024.50 1024.42 1024.30 1024.18 1024.22 1024.42 1024.54 1024.62 1024.74 1024.66 1024.42
1012.18 1012.54 1012.94 1013.38 1013.82 1014.10 1014.42 1014.78 1015.10 1015.46 1015.98 1016.42 1016.74 1017.02 1017.26 1017.58 1017.90 1018.34 1018.86 1019.14 1019.54 1020.10 1020.46 1020.38 1020.22 1020.46 1020.46 1020.62 1021.18 1021.58 1021.86 1021.94 1021.98 1022.10 1022.18 1022.34 1022.50 1022.66 1022.82 1022.98 1023.18 1023.46 1023.66 1023.70 1023.82 1023.90 1023.98 1024.06 1024.18 1024.26 1024.30 1024.34 1024.34 1024.50 1024.30 1024.06 1024.10 1024.30 1024.42 1024.50 1024.42 1024.38 1024.30
1011.86 1012.38 1012.74 1013.18 1013.58 1013.90 1014.26 1014.54 1014.82 1015.14 1015.58 1016.14 1016.50 1016.82 1017.14 1017.46 1017.78 1018.18 1018.58 1018.94 1019.26 1019.82 1020.14 1020.22 1020.18 1020.42 1020.42 1020.74 1021.06 1021.22 1021.34 1021.62 1021.82 1021.94 1022.02 1022.14 1022.22 1022.38 1022.50 1022.54 1022.82 1023.22 1023.46 1023.62 1023.74 1023.78 1023.86 1023.98 1024.10 1024.18 1024.26 1024.30 1024.34 1024.42 1024.30 1024.34 1024.18 1024.18 1024.30 1024.30 1024.18 1023.94 1023.70
1011.58 1012.30 1013.06 1013.38 1013.54 1013.78 1014.06 1014.30 1014.70 1015.02 1015.38 1015.86 1016.30 1016.74 1017.02 1017.30 1017.70 1018.22 1018.50 1018.90 1019.14 1019.34 1019.94 1020.22 1020.30 1020.38 1020.34 1020.74 1020.98 1021.02 1021.22 1021.46 1021.62 1021.78 1021.90 1022.02 1022.10 1022.26 1022.38 1022.34 1022.62 1022.98 1023.26 1023.50 1023.66 1023.66 1023.82 1023.90 1023.98 1024.06 1024.18 1024.22 1024.30 1024.34 1024.34 1024.54 1024.38 1024.26 1024.14 1023.82 1023.50 1023.58 1023.34
1011.94 1012.30 1012.50 1012.90 1013.30 1013.42 1013.86 1014.30 1014.78 1015.14 1015.46 1015.70 1016.18 1016.62 1016.98 1017.34 1017.78 1018.38 1018.66 1018.86 1019.14 1019.46 1019.86 1020.14 1020.30 1020.54 1020.50 1020.86 1020.90 1020.86 1021.10 1021.22 1021.42 1021.70 1021.90 1021.94 1022.06 1022.38 1022.46 1022.58 1022.66 1022.82 1023.10 1023.42 1023.54 1023.62 1023.74 1023.82 1023.86 1024.02 1024.14 1024.10 1024.22 1024.22 1024.46 1024.42 1024.30 1024.30 1024.26 1024.22 1024.02 1023.86 1023.78
1011.54 1012.06 1012.42 1012.78 1013.30 1013.66 1013.86 1014.22 1014.78 1015.26 1015.50 1015.74 1016.14 1016.70 1017.10 1017.54 1017.90 1018.46 1018.74 1018.94 1019.18 1019.50 1019.62 1019.90 1020.22 1020.42 1020.62 1020.86 1020.90 1020.74 1021.06 1021.10 1021.26 1021.54 1021.78 1021.90 1021.98 1022.22 1022.50 1022.62 1022.74 1022.78 1022.94 1023.18 1023.38 1023.54 1023.62 1023.70 1023.78 1023.90 1023.98 1023.94 1024.06 1024.26 1024.50 1024.22 1024.10 1024.22 1024.18 1024.10 1024.02 1023.86 1023.66
1011.82 1012.10 1012.54 1013.18 1013.54 1013.82 1014.02 1014.22 1014.62 1015.10 1015.46 1015.78 1016.22 1016.70 1017.14 1017.50 1017.90 1018.46 1018.82 1019.06 1019.30 1019.62 1019.82 1019.90 1020.14 1020.46 1020.54 1020.78 1020.90 1020.78 1020.98 1021.14 1021.22 1021.38 1021.50 1021.78 1021.94 1022.10 1022.26 1022.46 1022.66 1022.82 1022.78 1022.94 1023.14 1023.30 1023.46 1023.58 1023.74 1023.82 1023.86 1023.86 1024.02 1024.22 1024.22 1024.34 1024.30 1024.14 1024.06 1024.10 1024.02 1023.82 1023.62
1011.46 1011.90 1012.42 1012.86 1013.30 1013.74 1014.14 1014.42 1014.70 1014.98 1015.38 1015.78 1016.18 1016.74 1017.22 1017.54 1017.86 1018.34 1018.70 1018.98 1019.18 1019.38 1019.54 1019.86 1019.94 1020.30 1020.66 1020.70 1020.74 1020.74 1020.82 1021.14 1021.26 1021.30 1021.38 1021.58 1021.74 1021.78 1021.98 1022.06 1022.18 1022.42 1022.58 1022.74 1022.94 1023.10 1023.26 1023.46 1023.66 1023.66 1023.70 1023.78 1023.90 1024.14 1024.38 1024.30 1024.22 1024.06 1023.94 1023.94 1023.98 1023.78 1023.54
1011.30 1011.78 1012.18 1012.62 1013.18 1013.62 1014.06 1014.42 1014.70 1014.98 1015.34 1015.70 1016.26 1016.86 1017.30 1017.50 1017.78 1018.02 1018.30 1018.74 1018.98 1019.26 1019.46 1019.66 1019.90 1019.86 1020.22 1020.50 1020.62 1020.66 1020.78 1020.98 1021.14 1021.30 1021.50 1021.66 1021.82 1021.74 1021.78 1021.90 1021.94 1022.10 1022.30 1022.54 1022.74 1022.94 1023.14 1023.34 1023.38 1023.42 1023.58 1023.62 1023.78 1024.10 1024.26 1024.18 1024.02 1023.98 1023.94 1023.86 1023.74 1023.62 1023.38
Wind_Speed
9 8 9 7 5 6 6 4 3 3 3 4 5 5 5 3 3 4 4 4 5 4 6 5 4 4 5 4 5 4 5 3 6 7 5 4 6 2 0 1 1 3 6 2 5 6 5 5 1 1 1 2 2 1 2 1 1 0 2 3 2 0 2
7 8 8 8 7 7 5 3 3 3 4 4 5 5 4 4 3 3 4 4 4 5 6 5 4 5 5 5 5 6 6 5 4 4 5 2 4 3 1 1 3 4 3 2 3 3 3 3 1 3 1 1 2 1 0 1 1 1 2 4 3 0 1
7 7 8 8 8 7 6 5 4 4 5 5 4 4 5 4 4 4 5 5 5 5 6 5 5 5 4 5 5 5 5 7 5 7 6 5 5 3 3 2 3 2 3 4 4 3 3 2 6 6 5 5 3 3 2 3 4 3 2 4 2 2 2
10 10 9 9 8 8 7 6 5 5 5 5 5 3 4 5 5 6 6 5 5 5 6 6 5 5 4 5 5 6 6 7 6 7 6 5 5 6 6 7 6 6 3 3 1 3 3 2 2 1 1 3 4 2 4 4 4 3 3 4 2 0 2
12 10 11 11 11 10 8 7 6 6 5 5 3 4 4 5 5 5 5 5 5 6 6 5 4 5 5 5 6 6 6 5 5 7 6 6 6 6 5 5 6 5 6 5 2 3 4 2 3 1 2 1 0 2 2 2 1 2 3 2 3 3 3
11 11 10 10 10 10 8 8 8 7 6 6 5 5 5 5 6 6 6 6 6 5 5 5 4 4 5 6 6 6 6 6 6 6 7 5 6 7 6 4 6 7 6 4 5 4 3 5 6 4 2 1 3 3 1 0 0 1 0 3 3 4 5
10 10 9 10 9 8 7 8 8 8 7 6 6 6 6 6 6 5 5 5 5 5 6 6 5 5 6 7 6 7 6 5 6 7 7 6 7 5 5 7 6 6 6 6 5 6 5 5 5 3 1 2 1 2 1 0 1 2 3 3 5 4 4
10 9 8 8 8 9 8 8 7 8 8 7 6 7 5 6 7 6 6 6 5 5 5 5 6 6 6 6 6 7 6 5 7 7 6 7 7 7 7 7 7 7 6 6 6 6 6 6 4 3 3 3 3 4 3 3 4 5 1 2 3 7 4
9 8 7 7 7 9 9 9 9 9 7 7 7 7 7 8 7 6 5 5 5 6 6 6 7 6 6 7 7 7 7 4 7 7 6 7 7 7 7 6 7 6 6 6 5 6 6 6 6 5 5 5 5 2 3 3 3 2 3 4 3 5 6
11 10 10 10 10 9 8 8 9 8 8 8 7 8 8 7 7 7 6 6 6 5 6 7 7 7 6 7 7 7 7 6 7 6 6 7 6 7 7 6 6 6 5 4 6 6 5 5 6 5 5 6 4 5 1 2 2 3 4 4 3 3 4
10 10 10 10 9 9 7 8 8 8 9 9 9 7 8 8 7 7 7 6 5 6 7 6 6 6 6 6 6 6 6 6 6 5 5 7 7 7 7 6 5 6 4 5 6 5 5 4 5 6 6 6 6 6 2 2 0 2 3 4 3 3 4
10 10 10 10 9 8 8 9 9 9 9 9 9 9 8 8 7 7 6 5 6 7 6 6 6 6 6 7 6 7 6 6 7 7 6 7 6 7 6 6 5 5 5 5 5 4 4 5 4 4 6 6 6 5 4 2 1 2 3 4 4 4 4
10 11 11 10 9 8 9 10 10 10 9 8 9 9 8 8 8 7 6 6 6 6 7 6 6 6 7 6 6 7 6 7 7 6 6 5 5 5 5 5 4 4 4 4 4 3 4 4 5 6 5 6 4 4 5 4 4 2 2 2 4 5 6
10 10 11 9 9 9 9 9 9 8 8 9 9 9 9 9 8 7 6 6 7 7 7 7 6 6 6 6 6 7 6 6 7 6 6 6 5 6 5 5 5 4 4 5 4 4 3 3 4 5 5 6 6 4 5 4 4 3 4 2 3 3 7
10 10 11 9 10 9 9 9 8 8 9 9 9 10 10 8 7 7 6 6 7 6 7 7 6 6 6 7 6 5 6 7 6 6 5 5 5 5 5 6 5 5 5 5 4 4 3 4 4 4 3 5 5 4 4 3 1 1 3 4 5 5 4
10 11 12 9 10 10 9 9 8 9 8 8 8 9 9 8 8 7 7 7 6 6 7 6 5 6 6 7 7 6 6 7 6 6 6 6 7 6 6 4 4 4 4 5 4 4 4 4 5 6 5 4 4 4 4 3 2 1 2 3 3 4 3
12 12 12 10 11 10 9 9 8 9 8 8 9 8 9 9 8 7 7 7 6 6 6 6 6 7 7 6 7 8 7 6 6 6 7 7 6 6 5 5 4 4 4 5 4 4 4 4 5 4 4 3 4 4 3 3 2 0 1 3 4 3 3
12 12 11 9 10 10 10 9 7 8 8 8 9 8 8 8 7 8 8 8 7 7 6 7 8 7 5 5 7 8 7 6 6 6 6 6 7 6 5 5 5 5 5 5 4 4 4 4 3 4 4 4 4 3 3 3 2 1 2 3 3 2 3
13 13 11 10 11 10 10 9 8 7 8 9 8 8 9 7 7 8 8 7 7 7 7 7 8 7 6 6 7 7 7 6 6 6 6 6 6 5 5 5 4 5 5 5 4 3 3 3 3 4 4 4 4 3 3 3 4 4 4 3 3 4 4
12 12 11 10 10 10 10 9 8 9 8 9 8 8 8 7 7 8 8 7 8 8 8 7 7 7 7 7 7 7 6 7 6 6 6 6 5 5 5 5 5 6 6 5 5 4 4 4 4 4 4 4 3 4 4 4 5 5 5 5 4 3 4
12 11 10 10 11 10 9 8 8 9 9 9 9 8 8 8 7 7 7 8 8 8 7 7 7 7 7 7 7 6 7 7 7 6 5 5 5 6 7 6 6 5 6 5 5 4 4 4 4 4 3 4 4 4 4 4 5 5 6 5 4 4 3
10 11 11 11 11 10 10 8 9 9 8 8 8 8 7 8 8 7 7 8 8 7 7 7 6 7 7 7 7 8 8 7 7 7 6 6 6 7 6 5 5 5 5 7 7 5 5 4 4 5 3 4 4 4 4 4 4 5 5 5 5 4 5
11 11 11 11 11 10 10 8 10 10 9 9 8 8 7 8 8 8 8 9 8 7 6 5 8 12 9 8 7 7 7 7 7 7 7 7 6 6 6 5 5 10 11 10 7 7 7 7 6 5 4 4 4 5 4 4 5 4 4 4 3 3 5
12 12 12 11 10 11 10 8 10 10 9 9 8 8 8 8 7 7 9 8 8 6 6 6 12 13 13 12 8 7 7 7 7 7 6 7 7 6 5 5 5 7 7 7 4 6 6 7 6 6 5 4 4 4 5 4 3 2 2 1 1 2 2
13 12 12 12 11 11 10 10 10 10 9 9 8 7 8 8 7 7 7 8 7 6 5 9 13 13 12 12 9 6 6 6 6 6 6 7 7 7 6 6 4 4 4 5 4 4 4 5 6 6 6 5 4 3 3 3 2 1 1 0 2 3 2
13 12 12 12 11 10 10 11 11 10 10 9 7 8 8 8 7 7 8 8 7 6 5 10 13 13 12 11 11 8 5 5 6 5 5 7 7 7 6 6 5 4 4 9 5 4 4 3 3 2 1 2 3 5 6 6 4 2 4 3 3 4 3
13 13 12 12 11 11 11 12 10 9 9 8 8 8 7 8 7 7 8 8 8 7 8 10 14 13 11 12 12 9 5 6 5 6 6 7 7 7 8 7 6 5 4 5 4 5 4 3 3 2 2 3 4 6 8 9 8 6 4 4 4 3 5
13 13 13 13 12 12 11 10 10 9 9 9 8 9 8 7 7 7 8 9 9 9 9 13 14 14 13 11 9 7 5 5 6 5 6 7 8 8 8 7 7 7 6 4 5 6 5 4 4 3 3 3 4 5 6 6 6 5 5 5 6 7 9
13 13 13 13 13 12 11 12 11 9 8 7 6 6 6 7 8 8 9 10 10 9 8 13 15 13 14 12 7 2 3 5 5 6 6 7 7 8 8 8 7 6 5 5 7 10 7 5 4 3 1 2 3 4 5 7 9 9 8 6 7 8 8
13 13 13 13 13 13 11 11 10 9 9 8 8 8 7 6 7 9 10 11 12 10 9 13 17 16 16 17 11 8 7 7 6 6 6 6 7 6 6 6 6 6 6 6 8 10 9 8 4 2 1 2 4 3 2 3 5 8 8 8 11 12 13
14 14 14 13 13 12 9 10 10 10 11 10 9 8 8 7 8 10 12 12 12 12 10 13 16 14 15 15 11 7 5 7 6 6 6 5 6 5 5 9 8 8 7 7 9 10 10 6 4 3 1 0 2 1 2 4 3 0 5 10 11 9 9
13 12 10 11 10 12 11 11 10 9 10 9 8 7 8 8 7 8 10 12 14 14 12 12 14 13 16 15 10 5 6 7 7 6 6 6 5 5 4 6 9 9 8 8 11 9 10 6 4 4 3 1 1 1 1 1 1 2 3 6 7 8 9
11 13 14 11 9 11 9 10 10 10 9 9 8 7 8 8 8 7 9 11 11 12 12 9 11 13 14 13 12 7 5 7 7 6 5 7 6 3 5 4 8 12 13 12 10 10 9 8 5 4 3 2 2 3 1 1 1 0 2 2 5 5 6
14 10 10 11 7 8 9 11 10 11 10 8 9 8 8 7 8 7 7 8 9 9 9 10 10 15 14 14 13 10 4 5 5 6 7 6 7 6 6 6 5 11 14 13 11 10 9 8 7 4 4 4 4 2 1 2 2 4 2 4 4 5 6
11 10 10 9 8 9 8 10 11 11 8 9 10 9 8 8 8 8 7 8 8 8 6 11 9 13 14 14 13 12 6 4 4 7 7 6 7 6 7 7 6 9 13 14 13 12 11 9 8 4 5 7 6 3 3 1 2 3 3 4 6 6 6
11 8 9 10 11 11 9 10 10 10 10 10 10 10 8 8 8 8 8 8 9 9 9 8 13 11 14 15 14 13 11 7 6 5 5 5 6 8 7 8 8 13 14 14 13 13 11 10 8 5 8 7 7 6 2 3 2 3 4 4 5 6 6
11 9 11 11 10 11 10 10 9 9 9 10 9 9 7 8 8 9 9 7 7 7 7 8 11 15 14 17 15 14 12 11 9 5 5 3 1 3 5 6 8 14 16 15 14 13 12 10 7 9 8 8 7 4 1 2 3 3 3 4 6 6 6
Wind_Direction
160 152 146 145 136 135 136 149 143 154 146 123 121 115 114 113 97 92 89 104 108 95 85 85 100 102 90 69 74 90 75 88 128 135 153 157 140 215 298 241 97 115 154 131 146 162 157 157 225 352 57 64 50 63 61 58 84 137 270 286 293 159 260
148 142 144 147 145 141 137 152 151 161 128 104 124 131 123 122 119 103 109 107 106 103 101 95 85 86 96 99 83 73 81 72 85 116 113 159 126 184 127 64 89 126 136 89 133 123 139 116 216 186 194 347 18 333 278 283 261 240 257 254 261 208 282
143 134 142 147 145 147 151 164 165 141 129 121 115 110 132 130 106 93 79 86 96 104 102 104 100 91 90 94 102 103 97 89 82 95 109 107 96 82 95 104 77 40 42 31 22 25 53 107 164 201 198 171 168 268 277 259 262 266 239 265 285 286 48
144 143 147 151 151 151 161 167 153 143 124 127 120 99 118 109 113 105 103 98 105 106 102 103 110 113 108 105 104 96 93 101 103 101 93 88 87 75 68 82 87 91 109 110 69 53 95 70 55 232 185 185 169 201 263 236 244 266 280 265 215 34 105
152 154 156 158 159 160 165 160 150 133 125 129 120 114 110 105 102 107 111 107 107 109 113 122 124 119 118 110 100 99 94 92 92 91 92 84 80 79 73 78 88 94 76 79 96 95 87 120 131 142 201 149 49 225 274 250 284 301 323 202 111 118 96
156 155 157 157 163 166 163 154 149 144 144 139 152 126 132 118 107 105 108 115 118 120 125 123 125 112 106 100 99 95 95 92 96 98 91 93 94 95 100 84 83 70 67 63 74 85 87 93 82 72 330 134 161 226 270 104 184 331 246 61 62 54 76
156 156 159 164 167 165 158 154 152 151 154 165 157 141 152 126 114 119 113 115 122 123 126 125 119 114 108 106 103 100 97 102 93 93 99 97 91 96 91 78 67 72 64 58 63 63 59 61 56 54 325 350 97 182 88 46 27 71 346 59 49 45 60
156 159 165 166 162 161 156 155 155 155 158 168 145 150 137 117 122 122 121 120 122 122 118 115 110 104 104 101 100 101 93 91 94 94 91 94 89 83 76 81 77 61 60 57 63 58 67 72 87 63 89 69 360 28 58 29 53 54 30 1 72 36 39
158 158 158 159 159 159 158 158 160 159 159 149 145 129 122 125 126 122 121 125 125 121 117 115 115 111 109 106 104 105 102 101 97 91 95 92 92 90 88 81 74 70 65 61 63 65 68 79 76 75 84 89 106 51 357 48 19 16 20 47 348 21 9
162 162 163 162 161 161 158 157 156 155 141 140 137 128 130 128 128 129 130 131 128 123 115 115 116 117 115 113 114 111 110 107 99 100 96 95 94 88 82 85 89 80 67 58 50 50 55 72 82 84 83 93 118 118 57 45 6 40 350 33 53 318 352
162 160 160 161 162 160 155 150 144 140 144 144 137 137 132 132 134 135 137 140 134 124 125 122 121 121 116 112 116 114 119 111 102 91 88 92 91 91 90 83 83 83 76 69 66 60 60 71 92 88 85 86 92 97 140 113 64 45 11 344 27 339 334
160 160 161 160 160 155 151 150 146 143 140 139 134 135 134 132 134 139 140 141 135 130 125 125 122 118 119 117 116 113 107 104 103 102 97 96 98 97 96 94 95 97 92 86 73 65 62 77 84 92 83 79 75 95 98 112 75 294 50 7 332 330 323
163 162 162 160 160 151 152 148 144 144 145 138 136 135 133 134 139 138 140 139 133 130 128 126 123 123 120 122 121 116 115 110 108 107 106 102 105 102 99 99 102 110 102 95 94 86 91 88 83 80 88 86 79 83 87 84 87 310 308 355 322 317 324
164 158 156 156 151 147 150 147 147 146 136 139 137 133 133 136 139 140 140 138 135 134 130 130 129 128 125 123 121 121 119 114 113 113 110 103 103 103 101 96 87 81 83 67 58 54 39 46 78 84 90 82 72 66 78 77 52 341 311 321 337 309 310
159 155 153 148 147 148 146 144 145 139 138 141 137 137 137 138 141 142 139 140 137 133 134 134 136 130 130 128 127 123 120 120 117 116 114 114 104 103 103 95 83 85 95 101 90 63 68 76 74 65 70 103 92 83 97 83 51 61 315 321 335 314 308
157 154 151 148 148 148 141 140 143 139 140 140 137 139 140 141 146 144 141 143 139 138 140 139 136 133 136 137 132 126 127 126 125 122 118 117 117 117 108 108 108 101 93 82 76 61 50 68 72 65 41 54 78 63 61 76 86 358 309 296 293 318 317
156 154 154 153 147 146 141 140 141 142 144 138 141 139 141 146 147 148 146 146 145 144 140 135 135 139 144 140 132 132 132 130 127 126 126 127 125 122 127 119 124 114 105 99 88 76 58 68 77 75 63 52 72 55 46 39 39 181 247 338 311 315 309
157 157 155 153 145 143 141 141 144 145 142 138 142 141 145 148 149 149 151 152 150 148 145 141 139 142 142 133 133 134 136 135 133 136 136 135 133 135 138 142 148 127 112 108 92 78 77 77 81 78 69 53 59 45 24 29 360 49 45 352 306 310 344
160 157 154 150 147 144 143 147 147 148 148 142 140 146 149 155 153 152 152 153 149 149 144 143 145 148 144 136 134 136 138 136 140 139 138 135 138 142 144 144 135 120 115 115 114 86 57 55 75 82 70 54 41 29 27 9 27 34 45 22 6 341 352
160 158 155 150 149 147 147 152 149 153 153 143 142 150 154 151 154 152 154 149 150 150 148 148 149 148 142 140 140 140 133 132 132 130 130 132 128 124 109 96 90 95 98 106 104 110 98 67 69 64 66 70 40 48 33 28 32 40 40 27 5 18 357
157 157 151 147 149 148 148 151 150 152 149 144 147 156 155 153 155 152 153 151 152 150 149 150 149 146 145 145 142 137 137 136 132 127 124 122 117 102 103 103 102 104 111 118 121 124 116 104 89 73 37 66 59 57 45 35 39 41 34 26 26 347 352
155 152 149 146 148 149 153 153 149 153 148 141 149 154 153 153 154 155 153 152 153 153 151 155 153 150 146 144 140 139 141 139 135 133 129 117 104 107 104 109 109 117 121 118 117 121 117 123 116 100 56 79 77 79 60 53 57 46 37 39 5 1 2
155 152 151 152 152 152 159 155 151 154 149 146 151 153 155 156 158 158 156 153 153 151 153 153 156 150 147 146 144 141 139 137 138 138 134 119 115 114 120 122 137 131 122 123 123 118 110 105 110 121 139 115 111 96 91 79 61 64 62 39 6 359 358
155 155 154 155 156 158 163 156 155 153 149 151 156 158 158 160 160 159 154 153 151 151 150 152 147 146 146 144 141 141 142 141 141 142 138 132 132 128 123 122 121 128 129 129 136 146 143 139 145 150 137 139 140 134 124 95 92 112 97 72 284 7 333
159 158 157 160 162 164 160 158 158 152 149 156 161 158 160 166 157 154 148 145 147 141 140 141 143 146 147 143 138 138 138 142 146 151 143 136 137 135 136 132 137 139 145 156 159 156 163 168 169 172 171 172 179 222 203 163 153 141 151 101 312 280 256
162 162 163 162 164 162 159 161 158 150 156 162 153 163 166 161 156 151 144 141 129 122 119 142 146 148 147 143 138 136 140 142 149 159 143 139 142 143 145 150 162 172 191 178 166 171 176 192 203 193 269 277 276 232 225 236 232 168 155 155 198 261 229
165 167 165 165 167 163 161 165 161 150 150 155 157 163 163 157 150 148 141 130 124 125 129 146 141 135 136 142 144 143 153 153 157 160 151 150 152 153 159 166 170 186 204 191 169 176 184 190 195 200 234 248 247 245 238 232 226 215 196 188 183 218 258
165 167 168 170 169 167 163 161 157 150 155 162 162 166 162 151 150 142 132 128 131 137 148 150 133 132 129 129 134 147 159 158 159 166 161 154 160 163 169 173 176 182 185 172 160 160 152 163 159 181 209 240 242 245 234 227 218 205 199 211 211 225 255
167 169 172 170 169 169 165 165 159 151 148 148 150 145 148 144 147 143 136 136 134 141 148 155 134 144 141 126 104 63 157 169 169 172 164 162 167 170 172 176 174 173 166 168 173 159 157 155 148 163 193 258 278 269 252 234 212 196 201 199 209 224 240
170 172 173 169 169 171 163 162 153 146 146 152 155 157 157 153 148 140 142 143 143 149 158 168 161 166 149 147 155 166 181 180 170 170 166 166 170 169 165 165 171 164 165 174 175 159 161 150 153 161 168 323 308 343 341 343 195 208 232 247 250 249 253
170 173 175 172 168 170 155 160 158 157 156 157 158 160 152 151 153 147 151 154 150 157 169 185 170 164 154 159 172 174 163 162 166 164 161 156 152 162 176 177 151 163 166 181 175 162 160 147 151 152 133 16 342 347 341 338 21 305 268 255 256 277 295
167 161 160 174 168 166 159 162 157 154 149 147 150 149 151 154 155 147 154 151 159 160 167 184 177 174 163 174 179 169 155 159 160 171 164 171 167 168 194 201 141 155 168 173 172 164 167 158 154 153 152 151 265 205 256 320 299 322 335 351 337 343 329
146 171 178 167 161 164 153 149 152 145 148 147 147 147 149 150 141 144 155 157 161 159 166 178 182 187 174 183 184 165 155 159 168 174 173 170 181 191 191 170 146 149 156 162 170 166 174 164 157 166 139 164 200 235 245 306 269 13 308 296 296 307 295
167 172 169 164 146 147 153 149 145 146 150 145 139 139 142 144 138 144 153 154 155 166 170 173 188 187 183 188 191 169 170 165 166 163 173 174 185 181 192 184 180 163 160 167 169 175 173 174 165 162 169 177 201 192 160 321 312 341 313 300 305 309 309
155 166 147 137 142 149 150 147 148 153 151 146 146 146 149 153 146 141 150 152 156 169 182 182 179 191 186 189 196 180 166 168 153 168 172 184 196 193 186 190 184 187 174 171 174 177 178 174 177 172 196 199 216 225 274 266 282 311 320 320 311 312 308
163 147 150 151 146 149 151 150 153 151 149 151 152 154 154 154 149 145 150 161 168 175 176 187 184 184 194 191 198 192 170 149 136 111 141 183 203 201 193 190 192 184 185 181 180 181 181 182 176 202 207 208 227 248 261 272 275 308 317 310 308 297 295
149 154 154 153 148 149 153 152 154 153 154 154 155 154 161 157 157 164 166 167 172 172 180 179 196 189 188 195 198 195 180 159 147 128 112 111 160 194 187 194 199 188 189 188 187 186 183 179 196 210 213 216 231 234 236 274 287 273 281 293 293 285 282